User: anonymous   Login
Location: Unspecified
(0.0000°N, 0.0000°E)
Time: 02:56:04
(UTC+00:00)
Language:

STARLINK-2657 - Orbit

View from above orbital plane
View from above orbital plane
View from above satellite
View from above satellite

Ground track
Ground track

The orbit is defined by the following mean orbital elements,

1 48655U          26145.33001347 +.00000000 +00000-0 +39340-4 0 00003
2 48655  53.1582 117.5324 0001271 108.9648 251.1491 15.31706025    07
Epoch (UTC): 25 May 2026 07:55:13
Eccentricity: 0.0001271
inclination: 53.1582°
perigee height: 470 km
apogee height: 472 km
right ascension of ascending node: 117.5324°
argument of perigee: 108.9648°
revolutions per day: 15.31706025
mean anomaly at epoch: 251.1491°

The dashed part of the orbit path shows where the satellite is in the earth's shadow,  

DLR